Location: *
(50.3194°N, 7.1067°E)
Time: 05:51:08
(UTC+00:00)

Resurs 1-3 - Pass Details

Date: 22 September 2019
Orbit: 630 x 632 km, 98.0° (Epoch: 15 October)

Event Time Altitude Azimuth Distance (km) Brightness Sun altitude
Exits shadow 18:47:34 19° 117° (ESE) 1,497 4.9 -13.0°
Maximum altitude 18:49:58 33° 66° (ENE) 1,070 4.4 -13.3°
Drops below altitude 10° 18:53:55 10° 2° (N) 2,026 6.4 -13.9°
Sets 18:56:16 0° 353° (N) 2,939 7.4 -14.3°
